SCP
1 1 1 1 1 1 0 0 0 0 0 0 0 0 0 0 0 0 0 0 0 0 0 0 1 1 1 1 1 1 1 1 1 1 1 0 0 0 0 0 0 0 0 0 0 0 0 0 0
1 1 1 1 1 1 0 0 1 1 1 1 1 0 1 1 0 0 0 0 0 0 0 0 0 0 1 1 1 1 1 1 1 1 1 1 0 0 0 0 0 0 0 0 0 0 0 0 0
1 1 1 1 1 1 0 1 1 1 1 1 1 1 1 1 1 0 0 1 0 0 0 0 0 0 0 1 1 1 1 1 1 1 1 1 1 0 0 0 0 0 0 0 0 0 0 0 0
1 1 1 1 1 1 1 1 1 2 2 2 1 1 1 1 1 1 1 1 1 0 0 0 0 0 0 1 1 1 1 1 1 1 1 1 1 0 0 0 0 0 0 0 0 0 0 0 0
1 1 1 1 1 1 1 1 1 2 2 2 1 1 1 1 1 1 1 1 1 0 0 0 0 1 1 1 1 1 0 0 0 1 1 1 1 0 0 0 0 0 0 0 0 0 0 0 0
1 1 1 1 1 1 1 1 1 2 2 2 2 1 1 1 1 1 1 1 0 0 0 0 0 1 1 1 0 0 0 0 0 0 1 1 1 0 0 0 0 0 0 0 0 0 0 0 0
1 1 1 1 1 1 0 1 1 2 2 2 1 1 1 1 1 1 1 1 0 0 0 0 0 0 0 0 0 0 0 0 0 0 0 0 0 0 0 0 0 0 0 0 0 0 0 0 0
0 0 1 1 1 1 1 1 1 2 2 2 1 1 1 1 1 1 1 1 1 0 0 0 0 0 0 0 0 1 1 0 0 0 0 0 0 0 0 0 0 0 0 0 0 0 0 0 0
0 0 0 0 0 0 1 1 2 2 2 1 1 1 1 1 1 1 1 1 1 1 0 0 0 0 0 0 0 0 1 0 0 0 0 0 0 0 0 0 0 0 0 0 0 0 0 0 0
0 0 0 0 0 1 1 1 2 2 2 1 1 1 1 1 1 1 1 1 1 1 1 0 0 0 0 0 0 0 0 1 1 0 0 0 0 0 0 0 0 0 0 0 0 0 0 0 0
0 0 0 0 0 1 1 1 1 1 1 1 1 1 2 2 2 1 1 1 1 1 1 1 1 1 0 0 0 0 0 0 1 1 0 0 0 0 0 0 0 0 0 0 0 0 0 0 0
0 0 0 0 0 1 1 1 1 1 1 1 1 1 2 2 2 1 1 1 1 1 1 1 1 1 1 0 0 0 0 0 0 1 1 1 0 0 0 0 0 0 0 0 0 0 0 0 0
0 0 0 0 0 0 1 1 1 1 1 1 1 2 2 2 1 1 1 1 1 1 1 1 1 1 1 1 0 0 0 0 0 0 1 1 1 0 0 0 0 0 0 0 0 0 0 0 0
0 0 0 0 0 0 0 0 1 1 1 1 1 1 1 1 1 1 1 1 1 1 1 1 1 1 1 1 1 0 0 0 0 0 0 1 1 1 0 0 0 0 0 0 0 0 0 0 0
0 0 0 0 0 0 0 0 1 1 1 1 1 1 1 1 1 1 1 1 1 1 1 1 1 1 1 1 1 1 0 0 0 0 0 0 0 1 1 0 0 0 0 0 0 0 0 0 0
0 0 0 0 0 0 0 0 1 1 1 1 1 0 0 0 1 1 1 1 1 1 1 1 1 1 1 1 1 1 0 0 0 0 0 0 0 0 1 1 0 0 0 0 0 0 0 0 0
0 0 0 0 0 0 0 0 1 1 1 1 0 0 0 0 0 1 1 1 1 1 1 1 1 0 0 0 1 1 0 0 0 0 0 0 0 0 0 1 1 0 0 0 0 0 0 0 0
0 0 0 0 0 0 0 0 0 1 1 1 0 0 0 0 0 1 1 1 1 1 1 1 1 1 0 0 1 1 1 1 0 0 0 0 0 0 1 1 1 1 1 1 1 1 0 0 0
0 0 0 0 0 0 0 0 0 0 1 1 1 1 1 1 1 1 1 1 1 1 1 1 1 1 1 1 1 1 1 1 1 0 0 0 1 1 1 1 1 1 1 1 1 1 1 0 0
0 0 0 0 0 0 0 0 0 0 0 1 1 1 1 1 1 1 1 1 1 1 1 1 1 1 1 1 1 1 1 1 1 1 1 1 1 1 1 1 1 1 1 1 1 1 1 1 1
0 0 0 0 0 0 0 0 0 0 0 0 1 1 1 1 1 1 1 1 1 1 1 1 1 1 1 1 1 1 1 1 1 1 1 1 1 1 1 1 1 1 1 1 1 1 1 1 1
0 0 0 0 0 0 0 0 0 0 0 0 1 1 1 1 1 1 1 1 1 1 1 1 1 1 1 1 1 1 1 1 1 1 1 1 1 1 1 1 1 1 1 1 1 1 1 1 1
0 0 0 0 0 0 0 0 1 1 1 1 1 1 1 1 1 1 1 2 2 2 1 1 1 1 1 1 1 1 1 1 1 1 1 1 1 1 1 1 1 1 1 1 1 2 2 2 2
0 0 0 0 0 0 0 1 1 2 1 1 1 1 1 1 1 1 2 2 2 2 2 2 2 2 1 1 1 1 1 1 1 1 1 1 1 1 1 1 1 1 2 2 2 2 2 2 2
0 0 0 0 0 0 1 1 2 2 2 2 1 1 1 1 1 1 2 3 3 3 2 2 2 2 1 1 1 1 1 1 1 1 1 1 1 1 1 1 1 2 2 2 2 2 2 2 3
0 0 0 0 0 0 1 2 2 2 2 2 1 1 1 1 2 2 2 3 4 4 3 3 2 2 1 1 1 1 1 1 1 1 1 1 1 1 1 1 2 2 2 2 2 2 3 3 3
0 0 0 0 0 0 1 1 1 2 2 2 2 1 1 2 2 2 3 4 4 4 4 3 3 2 2 2 2 2 2 2 1 1 1 1 1 2 2 2 2 2 2 2 2 3 3 3 3
0 0 0 0 0 0 1 1 2 2 2 2 3 3 2 2 2 2 3 4 5 5 5 5 4 3 3 3 3 3 2 2 2 1 1 1 1 2 3 3 3 3 2 3 3 3 4 4 4
0 0 0 0 0 0 1 1 2 2 3 4 4 4 4 3 3 3 4 5 5 5 6 6 6 5 5 5 4 3 3 2 2 1 1 1 1 2 3 4 4 3 3 2 3 3 4 4 5
0 0 0 0 0 0 1 2 2 2 4 5 6 5 4 4 3 3 4 5 6 6 6 7 7 7 7 6 4 3 3 3 2 1 1 1 1 2 3 4 4 3 2 2 2 3 3 4 5
Wind_Speed
11 7 3 1 3 4 2 2 1 2 3 3 5 6 6 4 2 3 2 5 5 4 4 8 12 13 13 14 14 15 15 15 15 15 15 14 14 14 13 13 12 12 12 11 11 12 12 12 12
7 5 1 2 4 3 3 2 2 2 5 4 5 5 6 4 4 6 3 4 6 5 4 7 12 12 12 13 13 14 14 14 14 14 13 13 13 12 12 11 11 11 11 10 11 11 11 11 11
7 3 1 3 3 2 1 0 4 5 5 3 4 5 4 3 4 4 4 7 7 5 4 6 12 12 12 12 12 12 12 12 13 12 12 12 12 11 11 10 10 10 10 10 9 10 10 10 9
3 1 2 4 1 2 3 3 6 7 4 5 5 5 4 3 4 5 8 9 7 5 4 6 11 11 11 11 11 11 11 11 11 11 11 11 11 10 10 9 9 9 9 9 8 8 9 9 8
1 2 4 3 2 1 2 4 4 4 3 4 5 5 3 3 7 10 9 8 7 5 4 5 11 10 10 10 10 10 10 10 10 10 10 10 9 9 9 8 8 8 8 8 8 8 8 8 8
2 3 4 2 2 1 2 3 4 5 5 4 5 4 2 3 7 9 8 7 6 5 4 4 10 11 10 9 9 9 9 9 9 9 9 9 8 8 7 7 7 7 7 7 7 7 7 7 6
3 3 1 1 0 0 3 3 4 4 5 4 5 5 2 3 5 7 7 6 5 4 4 3 3 6 9 9 9 9 9 9 8 8 8 8 8 7 7 6 6 6 6 6 6 6 6 6 6
3 3 1 1 2 2 4 4 3 5 4 5 5 7 5 6 7 7 7 5 4 3 3 2 2 2 3 4 7 8 8 8 8 7 7 7 6 6 6 5 4 5 5 5 5 5 5 5 4
3 4 2 4 4 3 4 4 3 3 6 4 3 5 6 12 11 9 6 4 3 4 2 2 2 2 2 2 4 6 7 7 6 5 6 5 2 2 2 4 5 5 5 5 4 4 4 3 3
3 3 7 5 5 5 5 5 6 5 4 3 4 6 11 13 11 10 9 8 7 6 4 3 3 3 3 3 2 1 1 2 2 2 2 2 1 1 1 2 4 4 4 4 4 3 2 2 1
5 6 4 3 4 5 6 5 5 8 4 6 9 13 14 13 11 10 9 8 8 6 5 5 4 4 3 2 2 1 1 1 1 2 2 1 1 0 0 0 0 0 1 0 0 1 1 1 1
4 5 4 3 4 6 7 7 5 6 7 7 13 16 16 14 13 12 11 9 6 6 6 5 5 4 3 2 2 2 1 1 1 1 2 2 1 1 1 0 0 0 0 1 1 0 0 1 1
3 2 1 2 4 6 6 5 5 3 3 10 13 15 15 14 12 10 8 7 7 7 7 6 6 5 4 3 2 2 2 2 2 2 2 3 2 2 1 1 1 1 1 1 1 1 1 1 1
2 0 1 1 4 4 6 3 3 3 8 11 13 14 13 13 12 9 8 8 8 8 7 6 6 6 5 4 3 3 3 2 2 2 3 3 2 2 2 1 1 1 1 1 1 2 2 2 2
1 3 4 2 3 3 6 1 4 6 11 11 12 12 11 11 10 11 11 10 9 8 7 7 7 6 6 5 5 3 3 3 3 3 3 3 3 3 2 2 2 2 1 1 1 1 1 2 2
4 4 2 3 2 3 7 6 5 9 12 11 11 10 10 9 10 10 9 8 8 7 7 7 8 7 7 5 4 3 3 3 3 3 3 3 4 4 3 2 2 2 1 1 1 1 1 1 1
4 1 2 4 1 3 4 6 4 9 12 11 11 10 10 8 9 9 9 9 9 8 8 8 7 7 7 6 4 3 3 3 3 3 3 3 4 4 3 3 2 2 1 1 2 1 1 2 2
2 2 3 4 3 3 4 5 3 9 12 12 10 9 9 11 12 9 9 9 8 8 8 8 7 6 6 4 2 2 2 2 2 3 3 4 4 4 4 3 3 2 2 2 1 1 1 1 1
4 3 4 6 3 3 5 5 5 9 9 10 9 9 10 12 8 7 8 9 8 7 8 8 7 6 5 3 3 3 3 2 2 3 4 5 4 4 4 3 3 3 3 3 3 1 1 1 1
4 3 4 5 1 3 3 5 3 9 12 12 12 11 11 9 7 8 9 9 10 10 9 8 8 7 7 5 3 3 2 2 2 2 3 4 4 5 5 4 3 3 3 3 3 2 1 1 1
4 6 5 4 2 2 1 4 2 3 5 6 8 8 9 12 12 11 11 11 10 11 11 10 9 8 7 6 3 2 1 0 1 2 2 3 4 4 4 5 4 4 4 3 4 4 4 2 1
5 6 4 2 1 3 1 3 6 4 4 7 9 9 11 11 11 11 11 11 12 12 10 9 9 8 7 7 5 5 4 4 4 3 3 3 3 4 4 4 4 4 4 4 4 4 3 3 2
6 3 3 3 3 1 1 2 8 2 5 9 10 12 12 12 12 12 13 13 11 10 9 8 7 7 6 7 8 7 5 4 2 2 3 3 3 3 4 4 4 4 4 4 4 3 4 3 3
3 5 6 5 4 2 4 4 8 5 8 8 9 11 12 12 12 11 10 9 8 9 8 8 7 6 6 7 7 7 7 5 4 4 3 3 2 2 3 3 4 4 3 4 4 4 4 4 4
5 6 3 3 2 6 3 4 10 8 7 8 8 9 10 10 10 10 10 10 10 10 10 9 9 8 8 8 8 7 7 6 6 5 4 4 3 2 3 3 3 3 4 4 4 4 4 4 4
5 9 9 7 6 5 1 6 9 6 4 4 4 4 6 8 9 10 11 11 11 12 11 11 11 10 9 9 8 6 6 5 4 5 4 4 4 4 3 3 3 4 4 4 4 3 4 3 4
5 4 6 7 3 1 5 6 8 4 4 3 2 2 4 7 9 10 10 11 11 12 12 12 12 10 9 9 8 6 6 5 5 5 4 3 3 3 3 4 4 3 3 4 4 3 4 3 4
5 8 6 7 6 4 4 5 6 6 6 4 3 3 3 4 5 7 8 10 10 10 10 9 10 10 8 8 7 6 6 6 5 4 4 4 4 3 3 4 4 4 4 4 4 4 4 4 4
2 3 5 4 6 7 4 8 7 7 6 5 5 3 2 3 4 5 6 7 7 7 8 9 8 7 7 7 7 6 6 6 5 4 5 4 4 4 4 4 4 4 4 4 4 4 4 4 4
5 6 8 6 4 5 5 9 4 4 4 3 3 2 1 2 3 4 5 5 6 7 7 7 7 8 8 7 7 6 5 5 5 5 5 4 4 4 5 4 4 5 4 4 5 5 5 5 5
Wind_Direction
146 138 137 118 53 46 11 331 104 72 54 44 71 81 91 78 93 123 114 131 125 122 119 124 125 121 121 121 121 121 122 121 120 121 124 126 127 126 125 124 123 122 121 121 122 123 122 123 124
143 148 154 60 72 52 329 326 88 94 131 126 78 72 72 68 71 103 122 135 126 123 116 127 128 124 122 121 123 123 123 123 122 122 123 125 126 127 127 127 126 125 125 125 126 126 125 126 127
158 177 99 67 83 156 210 192 115 107 128 107 80 64 73 93 117 132 148 136 120 117 115 135 132 127 127 123 125 125 126 126 126 126 127 127 127 128 130 131 130 129 128 128 129 130 129 131 132
157 90 55 60 38 224 186 163 132 124 94 65 91 74 65 82 133 134 134 134 125 123 127 141 135 130 129 128 126 126 129 129 130 131 132 131 132 130 131 133 133 133 134 134 136 136 136 136 136
92 75 51 28 346 351 131 145 135 115 91 82 92 86 54 39 103 122 132 136 134 131 132 143 141 138 135 132 131 132 133 133 133 135 136 136 135 134 134 136 138 140 140 140 140 138 140 141 140
68 65 63 10 345 32 106 121 109 98 100 102 98 93 66 100 119 134 134 131 133 136 134 140 147 144 144 144 141 140 140 139 139 137 139 141 141 141 140 141 142 145 148 149 148 146 147 145 144
104 92 122 185 327 81 156 121 120 119 117 130 122 101 104 141 139 132 125 121 122 127 127 128 142 147 151 153 150 148 146 146 144 141 144 148 149 150 150 148 150 151 151 153 155 155 154 147 144
149 104 78 203 181 217 153 128 131 129 125 129 124 136 168 176 138 119 112 113 120 125 130 133 125 122 135 152 157 156 155 154 151 149 151 151 157 158 156 152 159 162 160 161 164 164 160 150 146
127 77 202 213 189 198 148 129 131 106 117 130 130 150 157 139 134 126 124 130 153 166 160 154 148 139 137 154 170 162 162 163 157 158 160 144 108 108 143 168 179 178 175 173 175 171 169 159 144
122 155 221 211 186 169 154 145 147 122 124 114 90 101 124 139 148 154 162 172 181 188 185 177 172 166 163 175 139 119 130 126 118 108 117 105 103 124 170 195 200 195 191 189 189 183 166 132 99
170 201 229 225 183 153 146 144 142 135 180 193 163 148 146 154 162 171 179 183 189 187 187 181 179 175 173 164 140 123 109 110 121 134 134 125 114 96 72 70 285 259 212 174 151 109 100 121 142
188 237 222 218 157 150 156 148 148 175 208 176 158 153 156 166 176 183 186 189 184 183 192 184 178 178 182 173 163 151 148 154 169 177 164 153 160 183 194 170 203 200 163 144 119 110 206 225 224
201 253 238 189 152 152 137 148 158 196 140 133 143 154 167 176 183 189 189 186 182 190 195 188 180 184 183 176 186 175 181 186 195 196 191 180 183 199 200 205 209 203 180 179 179 180 221 247 266
222 243 330 107 130 141 135 143 137 183 137 140 155 168 178 184 185 184 184 187 189 193 194 187 185 186 180 183 191 190 189 192 198 210 209 192 188 194 195 209 208 212 199 191 189 197 214 237 247
72 54 22 54 121 138 118 165 213 169 146 155 170 178 183 190 188 192 191 190 191 192 190 187 190 184 183 190 197 197 196 192 202 212 206 198 191 193 193 204 215 215 195 183 183 207 212 230 238
48 57 18 301 132 142 140 228 226 158 159 170 180 185 190 196 198 199 192 189 187 184 185 191 194 184 189 191 194 194 194 194 206 206 204 205 197 192 192 205 223 210 172 168 181 195 210 235 236
35 70 263 295 215 153 172 236 216 167 171 182 188 190 193 200 207 203 193 188 184 184 183 187 189 182 188 189 188 192 192 199 205 200 206 209 204 197 192 206 217 196 181 192 209 189 194 230 247
230 231 252 251 243 170 207 240 198 180 184 190 193 193 195 204 210 201 192 187 182 182 183 187 188 184 176 167 162 170 203 215 208 208 211 208 207 200 192 205 209 188 187 210 212 210 210 230 250
187 198 253 260 234 187 228 246 214 186 193 197 199 199 203 212 209 192 188 183 176 178 183 188 189 184 168 162 171 182 208 213 216 219 216 208 206 201 196 209 203 193 201 212 204 194 210 237 196
180 207 255 287 268 180 234 261 228 191 201 201 201 203 207 208 198 194 189 184 184 186 188 190 194 186 183 184 175 173 179 199 209 219 215 209 207 204 206 205 205 200 201 210 202 184 178 228 162
202 198 220 246 340 27 88 319 289 230 211 209 209 207 207 205 202 198 192 191 189 192 192 194 194 189 189 182 153 128 109 90 184 215 221 221 212 209 210 206 202 201 198 214 216 194 190 207 208
239 220 198 195 77 293 126 269 284 239 224 221 217 208 209 209 202 195 191 192 195 198 193 192 188 188 187 175 174 180 191 206 213 206 212 223 214 213 209 205 201 203 199 212 224 208 196 189 210
214 196 174 167 163 300 342 189 282 292 245 241 225 215 212 206 199 196 196 195 194 190 186 186 183 187 184 182 186 190 205 212 209 205 216 222 220 218 213 201 198 204 205 210 215 206 201 196 200
153 77 58 51 79 248 235 182 269 241 228 241 227 219 212 204 199 199 196 186 186 183 180 176 176 185 182 185 190 194 202 203 201 210 216 222 220 222 218 202 200 206 208 212 212 209 208 208 205
113 102 46 1 7 244 225 191 247 250 237 231 231 222 211 199 195 191 186 185 185 183 183 179 179 187 186 187 193 196 202 201 207 211 211 213 214 219 220 210 204 207 210 210 203 202 210 207 205
179 148 162 191 213 255 233 221 251 264 267 259 247 225 201 194 191 192 191 191 189 186 185 182 183 188 186 190 197 197 199 201 212 212 204 207 210 218 211 205 209 213 211 212 200 203 213 208 212
149 179 167 140 156 197 258 269 292 286 292 289 280 231 204 199 194 195 190 190 189 188 188 185 182 185 188 192 191 192 197 202 208 208 203 206 206 212 204 205 212 216 212 208 199 210 214 206 211
155 148 108 130 155 220 266 254 243 257 266 277 266 239 224 204 196 192 188 190 189 190 183 176 178 184 187 186 189 196 199 203 202 195 200 204 211 211 202 209 211 213 214 207 202 212 216 208 211
120 110 120 132 157 164 223 257 231 228 239 245 249 233 204 194 191 188 184 179 172 170 171 174 177 174 179 184 189 195 200 200 197 202 208 206 208 208 210 209 210 214 217 210 205 215 211 213 214
167 167 151 157 210 181 185 256 276 225 232 231 255 261 193 170 174 165 154 147 155 163 168 172 175 178 182 185 190 199 201 194 198 210 212 202 208 212 212 210 214 222 221 210 207 214 211 211 214